[[{"header":{"parameterUnit":"m.s-1","parameterCategory":1,"la1":30.2991,"la2":30.254,"lo1":-89.0895,"lo2":-89.0444,"dy":0.0017,"dx":0.0017,"nx":28,"ny":28,"refTime":"2025-07-16T03:00:00:Z","depth":0,"parameterNumber":2,"parameterNumberName":"U-component_of_WINDS"},"data":[0,0,0,0,0,0,0,0,0,0,0,0,0,0,0,0,0,0,0,0,0,0,0,0,0,0,0,0,0,0,0,0,0,0,0,0,0,0,0,0,0,0,0,0,0,0,0,0,0,0,0,0,0,0,0,0,0,0,2.2103,2.2103,0,2.2071,2.2071,2.2071,2.1951,2.1948,2.1945,2.1942,2.1914,2.1916,2.1918,0,0,0,0,0,0,0,0,0,0,0,0,0,2.2065,2.2066,2.2103,2.2103,2.2102,2.2071,2.2071,2.2071,2.1951,2.1948,2.1944,2.1941,2.1913,2.1916,2.1918,0,0,0,0,0,0,0,0,0,0,0,0,0,2.2062,2.2067,2.2103,2.2039,2.2033,2.2072,2.2071,2.207,2.1952,2.1948,2.1943,2.194,2.1913,2.1915,2.1918,2.2018,0,0,2.1926,2.1928,0,0,0,0,0,0,0,0,2.2063,2.2064,2.2049,2.2043,2.2037,2.2011,2.2047,2.2053,2.1953,2.1983,2.1942,2.1938,2.195,2.1949,2.1952,2.2016,2.2015,2.1927,2.1928,2.1929,2.193,0,0,0,0,0,0,0,2.2063,2.2065,2.2091,2.2049,2.2041,2.2013,2.2008,2.2048,2.199,2.198,2.1971,2.1969,2.1946,2.195,2.1951,2.2015,2.1927,2.1929,2.1931,2.1932,2.2161,2.2165,0,0,0,0,0,0,2.2072,2.2066,2.2092,2.209,2.204,2.2017,2.2012,2.2023,2.1989,2.198,2.1972,2.1963,2.1947,2.1948,2.1949,2.2066,2.1929,2.1932,2.1933,2.2157,2.2162,2.2167,0,0,0,0,0,0,2.2071,2.2075,2.2093,2.2075,2.2075,2.2022,2.2036,2.2025,2.2029,2.1983,2.1973,2.1987,2.1944,2.1946,2.2002,2.2063,2.1933,2.1936,2.2151,2.2158,2.2164,2.2299,0,0,0,0,0,0,2.2071,2.2076,2.2112,2.2077,2.2077,2.2145,2.204,2.2027,2.2034,2.2021,2.1995,2.1986,2.1941,2.1998,2.2005,2.2065,2.1938,2.2146,2.2154,2.2162,2.2289,2.2309,2.2327,0,0,0,0,0,2.207,2.2152,2.2115,2.2118,2.2121,2.2149,2.2149,2.2094,2.2039,2.2076,2.2047,2.1987,2.2055,2.2005,2.2011,2.2073,2.2142,2.2152,2.2162,2.228,2.2305,2.2326,0,0,0,0,0,0,2.2197,2.2146,2.2104,2.2176,2.2168,2.2128,2.2173,2.2122,2.213,2.2118,2.2051,2.2046,2.2113,2.2098,2.2043,2.2169,2.2088,2.21,2.2176,2.22,2.2219,2.2222,2.194,0,0,0,0,0,2.2233,2.2258,2.2213,2.2281,2.2279,2.2227,2.2237,2.2196,2.2185,2.2181,2.2155,2.2148,2.2168,2.2182,2.2198,2.2285,2.2279,2.233,2.235,2.2365,2.2377,2.2425,2.2448,2.22,2.22,2.22,0,0,2.2308,2.2283,2.2304,2.2306,2.2294,2.2325,2.2225,2.226,2.2283,2.2186,2.2238,2.222,2.2207,2.228,2.2311,2.227,2.2444,2.2378,2.2391,2.2394,2.2438,2.2461,2.2482,2.2207,2.2205,2.2204,0,0,2.2461,2.2444,2.25,2.2491,2.2474,2.2439,2.2453,2.2421,2.2405,2.2455,2.2385,2.241,2.2445,2.244,2.2442,2.2594,2.2541,2.2601,2.2702,2.2749,2.2769,2.2786,2.2843,2.2864,2.2612,2.2612,2.2613,0,2.2558,2.2599,2.2536,2.2577,2.2581,2.2493,2.2551,2.2545,2.2535,2.2541,2.2494,2.2537,2.2522,2.2594,2.2631,2.2635,2.265,2.2605,2.277,2.2787,2.2802,2.2856,2.2878,2.262,2.2619,2.2618,2.2618,0,2.272,2.2749,2.2797,2.2789,2.2798,2.2847,2.2793,2.281,2.2768,2.2739,2.2793,2.2772,2.2783,2.2796,2.2755,2.2863,2.2838,2.2782,2.2701,2.2835,2.2884,2.2904,2.2631,2.2628,2.2626,2.2624,0,0,2.2954,2.291,2.2929,2.2925,2.29,2.2923,2.2968,2.2978,2.2995,2.2991,2.303,2.3061,2.3009,2.3012,2.2969,2.301,2.3136,2.2949,2.2948,2.2988,2.3257,2.3302,2.3327,2.3099,2.3103,2.3106,2.3259,0,2.3102,2.3177,2.3122,2.3207,2.3236,2.3153,2.3193,2.3184,2.3158,2.3179,2.315,2.3175,2.3103,2.3104,2.3141,2.3113,2.319,2.3101,2.3138,2.314,2.3147,2.3352,2.3399,2.3545,2.3278,2.3281,2.3283,0,2.3285,2.3289,2.3377,2.3348,2.3358,2.3395,2.34,2.342,2.3409,2.3387,2.339,2.3337,2.3382,2.33,2.3363,2.3303,2.3315,2.3304,2.3308,2.3312,2.3222,2.3365,2.359,2.3614,2.3313,2.331,2.3308,0,2.3452,2.3478,2.3535,2.3533,2.35,2.3529,2.3516,2.35,2.351,2.3514,2.3521,2.3531,2.3538,2.3548,2.35,2.3444,2.357,2.3483,2.3556,2.3558,2.3589,2.3588,2.3823,2.3591,2.3591,2.3591,2.359,0,2.3625,2.3683,2.3609,2.3645,2.3708,2.3644,2.3709,2.3688,2.3674,2.3706,2.3634,2.3666,2.3599,2.3624,2.3587,2.3647,2.3649,2.3635,2.3625,2.3644,2.3646,2.3653,2.3643,2.3596,2.3595,2.3594,2.3593,0,2.3822,2.3774,2.3832,2.3795,2.3787,2.3836,2.3805,2.3838,2.3806,2.3847,2.3853,2.3805,2.3831,2.3783,2.3803,2.3778,2.3863,2.3835,2.3867,2.386,2.3937,2.3932,2.4186,2.4218,2.3964,2.3966,2.3968,0,2.3938,2.398,2.3948,2.3964,2.3955,2.3981,2.399,2.3929,2.3943,2.3933,2.3967,2.3987,2.3999,2.4045,2.4013,2.4029,2.4003,2.4091,2.4005,2.4023,2.4009,2.4008,2.4014,2.411,2.4113,2.4116,2.4118,0,2.4149,2.4123,2.4139,2.4147,2.4161,2.4164,2.4163,2.418,2.4116,2.4135,2.416,2.417,2.419,2.4212,2.4219,2.4208,2.4155,2.4145,2.4163,2.4184,2.4202,2.4197,2.3919,2.414,2.4138,2.4136,2.4135,2.4134,2.4311,2.4346,2.4329,2.435,2.4342,2.4343,2.4372,2.4344,2.4364,2.4375,2.4338,2.4373,2.4361,2.4365,2.436,2.4388,2.4349,2.4375,2.4382,2.439,2.4404,2.4195,2.4388,2.4388,2.4387,2.4387,2.4386,0,2.4521,2.4506,2.4525,2.4526,2.4543,2.4487,2.4483,2.4502,2.4533,2.4526,2.454,2.457,2.4591,2.456,2.4576,2.4604,2.458,2.4611,2.461,2.4609,2.4436,2.442,2.463,2.463,2.463,2.463,2.463,2.463,2.4633,2.469,2.4663,2.4716,2.4701,2.4733,2.4737,2.4738,2.4732,2.4769,2.4785,2.4764,2.4749,2.4763,2.478,2.4771,2.4782,2.4822,2.4805,2.4645,2.4621,2.4598,2.4583,2.4824,2.4825,2.4976,2.4978,2.4979]},{"header":{"parameterUnit":"m.s-1","parameterCategory":1,"la1":30.2991,"la2":30.254,"lo1":-89.0895,"lo2":-89.0444,"dy":0.0017,"dx":0.0017,"nx":28,"ny":28,"refTime":"2025-07-16T03:00:00:Z","depth":0,"parameterNumber":3,"parameterNumberName":"V-component_of_WINDS"},"data":[0,0,0,0,0,0,0,0,0,0,0,0,0,0,0,0,0,0,0,0,0,0,0,0,0,0,0,0,0,0,0,0,0,0,0,0,0,0,0,0,0,0,0,0,0,0,0,0,0,0,0,0,0,0,0,0,0,0,-1.306,-1.3061,0,-1.3128,-1.3129,-1.313,-1.3141,-1.3141,-1.314,-1.314,-1.3208,-1.3211,-1.3213,0,0,0,0,0,0,0,0,0,0,0,0,0,-1.2939,-1.2942,-1.306,-1.3061,-1.3062,-1.3128,-1.3129,-1.313,-1.3141,-1.3141,-1.314,-1.3139,-1.3208,-1.321,-1.3213,0,0,0,0,0,0,0,0,0,0,0,0,0,-1.2998,-1.2942,-1.306,-1.3075,-1.3078,-1.3128,-1.3129,-1.313,-1.3141,-1.3141,-1.314,-1.3139,-1.3207,-1.321,-1.3214,-1.3253,0,0,-1.3225,-1.3226,0,0,0,0,0,0,0,0,-1.2995,-1.3002,-1.3072,-1.3075,-1.3077,-1.3125,-1.3112,-1.3171,-1.3142,-1.3117,-1.3139,-1.3138,-1.3181,-1.3187,-1.3202,-1.3256,-1.3259,-1.3225,-1.3227,-1.3229,-1.323,0,0,0,0,0,0,0,-1.2991,-1.3,-1.3087,-1.3073,-1.3076,-1.3079,-1.3086,-1.3123,-1.3153,-1.3119,-1.312,-1.3128,-1.3183,-1.3198,-1.3203,-1.326,-1.3225,-1.3228,-1.323,-1.3232,-1.3351,-1.3352,0,0,0,0,0,0,-1.2984,-1.2996,-1.3085,-1.3089,-1.3033,-1.3082,-1.309,-1.3111,-1.3153,-1.3159,-1.3129,-1.3128,-1.3193,-1.3199,-1.3206,-1.3255,-1.3229,-1.3232,-1.3234,-1.335,-1.3351,-1.3352,0,0,0,0,0,0,-1.2981,-1.2992,-1.3082,-1.3043,-1.3055,-1.3085,-1.3108,-1.3112,-1.3128,-1.316,-1.3166,-1.3139,-1.3192,-1.3201,-1.3241,-1.3257,-1.3234,-1.3237,-1.3349,-1.335,-1.3352,-1.3353,0,0,0,0,0,0,-1.2978,-1.2991,-1.3006,-1.3043,-1.3057,-1.3117,-1.3109,-1.3114,-1.3134,-1.3134,-1.3172,-1.3177,-1.3192,-1.3236,-1.3245,-1.3262,-1.324,-1.3347,-1.3349,-1.3351,-1.3352,-1.3354,-1.3357,0,0,0,0,0,-1.2973,-1.3003,-1.3007,-1.3017,-1.3077,-1.3117,-1.3125,-1.3142,-1.3136,-1.3151,-1.3172,-1.3176,-1.3254,-1.324,-1.325,-1.3268,-1.3346,-1.3349,-1.3351,-1.335,-1.3354,-1.3357,0,0,0,0,0,0,-1.2967,-1.3009,-1.3013,-1.3056,-1.3083,-1.3119,-1.3139,-1.3145,-1.3175,-1.3174,-1.3194,-1.3202,-1.3241,-1.3259,-1.3242,-1.3309,-1.33,-1.3304,-1.3296,-1.3299,-1.3302,-1.3297,-1.3242,0,0,0,0,0,-1.2971,-1.3001,-1.3035,-1.307,-1.3083,-1.3109,-1.3128,-1.3139,-1.3167,-1.3179,-1.3203,-1.323,-1.3261,-1.3281,-1.3312,-1.3354,-1.3363,-1.3372,-1.3374,-1.3376,-1.338,-1.3404,-1.3409,-1.336,-1.336,-1.336,0,0,-1.2978,-1.3005,-1.3022,-1.3069,-1.3092,-1.3122,-1.3119,-1.3151,-1.3174,-1.3184,-1.3224,-1.3242,-1.3274,-1.3316,-1.3336,-1.3332,-1.3395,-1.3379,-1.3381,-1.3383,-1.3407,-1.3411,-1.3415,-1.3361,-1.3361,-1.3361,0,0,-1.3008,-1.3031,-1.3062,-1.3085,-1.3119,-1.3136,-1.3144,-1.3179,-1.3192,-1.3232,-1.3241,-1.3268,-1.3321,-1.3344,-1.3362,-1.3401,-1.3406,-1.341,-1.3424,-1.3447,-1.3451,-1.3454,-1.3468,-1.3473,-1.3414,-1.3414,-1.3414,0,-1.3013,-1.3059,-1.3078,-1.311,-1.313,-1.3141,-1.3173,-1.3194,-1.3236,-1.325,-1.3245,-1.3313,-1.3335,-1.3382,-1.3392,-1.3407,-1.3416,-1.3406,-1.3449,-1.3452,-1.3456,-1.3469,-1.3475,-1.3414,-1.3414,-1.3414,-1.3414,0,-1.3064,-1.3096,-1.3117,-1.3158,-1.3181,-1.3213,-1.3236,-1.3257,-1.3266,-1.3283,-1.3324,-1.3352,-1.3388,-1.34,-1.3409,-1.3449,-1.3446,-1.3445,-1.3436,-1.3461,-1.3474,-1.3479,-1.3415,-1.3415,-1.3415,-1.3414,0,0,-1.3091,-1.3142,-1.3149,-1.3168,-1.3207,-1.3232,-1.3264,-1.33,-1.3318,-1.3346,-1.3374,-1.3419,-1.3418,-1.3439,-1.3451,-1.3472,-1.3501,-1.3468,-1.3469,-1.3473,-1.3546,-1.3547,-1.3552,-1.3504,-1.3505,-1.3506,-1.3544,0,-1.3125,-1.3183,-1.3201,-1.325,-1.3279,-1.3291,-1.3319,-1.3346,-1.3363,-1.3391,-1.341,-1.3441,-1.3438,-1.3451,-1.3472,-1.3493,-1.3516,-1.349,-1.353,-1.3531,-1.3521,-1.3559,-1.356,-1.3594,-1.3549,-1.355,-1.355,0,-1.3172,-1.3202,-1.3254,-1.3289,-1.3303,-1.3328,-1.3362,-1.3389,-1.3419,-1.343,-1.3454,-1.3465,-1.3499,-1.3488,-1.3536,-1.3518,-1.3536,-1.3549,-1.355,-1.3554,-1.3542,-1.3564,-1.3605,-1.361,-1.3559,-1.3558,-1.3557,0,-1.3186,-1.324,-1.3278,-1.3294,-1.3336,-1.3353,-1.3372,-1.3402,-1.3422,-1.3452,-1.3466,-1.3499,-1.3517,-1.3543,-1.3562,-1.3553,-1.3608,-1.3599,-1.3618,-1.3618,-1.3629,-1.3628,-1.3673,-1.3641,-1.3641,-1.364,-1.364,0,-1.3222,-1.3253,-1.3285,-1.3308,-1.3344,-1.3364,-1.3398,-1.3417,-1.3444,-1.3471,-1.3483,-1.3508,-1.3532,-1.356,-1.3576,-1.3613,-1.3621,-1.3631,-1.3634,-1.363,-1.3628,-1.3641,-1.3639,-1.3642,-1.3642,-1.3641,-1.3641,0,-1.3244,-1.3266,-1.3308,-1.3345,-1.3355,-1.338,-1.3411,-1.3434,-1.3452,-1.3486,-1.3496,-1.3524,-1.3558,-1.358,-1.3623,-1.3633,-1.3674,-1.3677,-1.3664,-1.3665,-1.3683,-1.3681,-1.3738,-1.3746,-1.3708,-1.3708,-1.3709,0,-1.3265,-1.3289,-1.3329,-1.3348,-1.3367,-1.3398,-1.3419,-1.344,-1.3461,-1.3498,-1.3517,-1.3552,-1.3581,-1.3635,-1.3659,-1.3693,-1.3697,-1.3714,-1.3702,-1.3696,-1.3697,-1.3695,-1.3698,-1.3716,-1.3716,-1.3717,-1.3717,0,-1.33,-1.331,-1.3341,-1.3375,-1.34,-1.3428,-1.3455,-1.347,-1.3496,-1.3519,-1.3555,-1.3577,-1.3622,-1.3657,-1.3692,-1.3711,-1.3718,-1.3721,-1.3727,-1.3722,-1.3713,-1.3718,-1.3669,-1.3719,-1.3719,-1.3719,-1.3719,-1.3719,-1.3323,-1.3345,-1.3376,-1.341,-1.3433,-1.3459,-1.3482,-1.3504,-1.3533,-1.3571,-1.3582,-1.3619,-1.3649,-1.3698,-1.3718,-1.3747,-1.3745,-1.3754,-1.3756,-1.3758,-1.3758,-1.3709,-1.3754,-1.3753,-1.3753,-1.3753,-1.3753,0,-1.3359,-1.338,-1.341,-1.3449,-1.3475,-1.348,-1.3511,-1.3532,-1.3565,-1.3593,-1.3621,-1.3662,-1.3696,-1.3723,-1.3758,-1.3776,-1.378,-1.3785,-1.3783,-1.3788,-1.3758,-1.3749,-1.3781,-1.3781,-1.3781,-1.3781,-1.3781,-1.3781,-1.338,-1.3419,-1.3432,-1.3482,-1.3503,-1.3539,-1.3557,-1.3581,-1.3603,-1.3648,-1.3676,-1.3694,-1.3722,-1.3759,-1.379,-1.3797,-1.381,-1.3813,-1.3821,-1.3793,-1.379,-1.3787,-1.3779,-1.3816,-1.3816,-1.3848,-1.3849,-1.3849]}]]